Weather History for KHNB - February, 2014

Change the Weather History Date:

Tuesday, February 4, 2014

  Actual Average Record
Temperature  
Mean Temperature 28 °F -  
Max Temperature 32 °F 41 °F 64 °F (2008)
Min Temperature 24 °F 26 °F 6 °F (2007)
Degree Days  
Heating Degree Days 37    
Moisture  
Dew Point 23 °F    
Average Humidity 79    
Maximum Humidity 93    
Minimum Humidity 60    
Precipitation  
Precipitation 0.69 in - - ()
Sea Level Pressure  
Sea Level Pressure 30.14 in    
Wind  
Wind Speed 6 mph (NE)    
Max Wind Speed 22 mph    
Max Gust Speed 29 mph    
Visibility 7 miles    
Events      
Averages and records for this station are not official NWS values.
T = Trace of Precipitation, MM = Missing Value Source: NWS Daily Summary

Daily Weather History Graph

Daily Weather History Graph

Search for Another Location

Airport or City:

Trip Planner

Search our weather history database for the weather conditions in past years. The results will help you decide how hot, cold, wet, or windy it might be!

Date:

Astronomy

Feb. 04, 2014 Rise Set
Actual Time 7:49 AM EST 6:13 PM EST
Civil Twilight 7:22 AM EST 6:41 PM EST
Nautical Twilight 6:50 AM EST 7:13 PM EST
Astronomical Twilight 6:19 AM EST 7:44 PM EST
Moon 10:32 AM EST (2/4) No Moon Set
Length of Visible Light 11h 19m
Length of Day
10h 23m
Waxing Crescent, 29% of the Moon is Illuminated
Feb 4
Waxing Crescent
Feb 6
First Quarter
Feb 14
Full
Feb 22
Last Quarter
Mar 1
New

Hourly Weather History & Observations

Time (EST) Temp. Windchill Dew Point Humidity Pressure Visibility Wind Dir Wind Speed Gust Speed Precip Events Conditions
12:15 AM 24.8 °F 19.1 °F 19.4 °F 80% 30.32 in 10.0 mi ENE 4.6 mph - N/A   Clear
12:35 AM 24.8 °F 20.5 °F 19.4 °F 80% 30.31 in 10.0 mi NNE 3.5 mph - N/A   Clear
12:55 AM 24.8 °F 20.5 °F 19.4 °F 80% 30.32 in 9.0 mi NNE 3.5 mph - N/A   Clear
1:15 AM 24.8 °F 20.5 °F 19.4 °F 80% 30.32 in 10.0 mi NE 3.5 mph - N/A   Clear
1:35 AM 24.8 °F 20.5 °F 19.4 °F 80% 30.31 in 10.0 mi NNE 3.5 mph - N/A   Clear
1:55 AM 24.8 °F 17.9 °F 17.6 °F 74% 30.31 in 10.0 mi NNE 5.8 mph - N/A   Clear
2:15 AM 24.8 °F 16.9 °F 19.4 °F 80% 30.30 in 9.0 mi NE 6.9 mph - N/A   Clear
2:35 AM 24.8 °F 19.1 °F 19.4 °F 80% 30.31 in 10.0 mi NE 4.6 mph - N/A   Clear
2:55 AM 24.8 °F - 19.4 °F 80% 30.31 in 10.0 mi Calm Calm - N/A   Clear
3:15 AM 24.8 °F 20.5 °F 19.4 °F 80% 30.31 in 10.0 mi NE 3.5 mph - N/A   Clear
3:35 AM 24.8 °F 20.5 °F 19.4 °F 80% 30.32 in 10.0 mi NNW 3.5 mph - N/A   Clear
3:55 AM 24.8 °F 16.9 °F 19.4 °F 80% 30.31 in 10.0 mi ENE 6.9 mph - N/A   Clear
4:15 AM 24.8 °F 16.1 °F 19.4 °F 80% 30.29 in 9.0 mi NE 8.1 mph - N/A   Clear
4:35 AM 24.8 °F 16.1 °F 19.4 °F 80% 30.27 in 10.0 mi ENE 8.1 mph - N/A   Clear
4:55 AM 24.8 °F 16.1 °F 19.4 °F 80% 30.27 in 9.0 mi ENE 8.1 mph - N/A   Clear
5:15 AM 26.6 °F 19.1 °F 19.4 °F 74% 30.27 in 10.0 mi East 6.9 mph - N/A   Clear
5:35 AM 24.8 °F 17.9 °F 19.4 °F 80% 30.27 in 10.0 mi East 5.8 mph - N/A   Clear
5:55 AM 26.6 °F 22.6 °F 19.4 °F 74% 30.30 in 9.0 mi North 3.5 mph - N/A   Clear
6:15 AM 26.6 °F 22.6 °F 19.4 °F 74% 30.33 in 8.0 mi NNW 3.5 mph - N/A   Clear
6:35 AM 26.6 °F 21.2 °F 19.4 °F 74% 30.33 in 8.0 mi NNE 4.6 mph - N/A   Clear
6:55 AM 26.6 °F 17.5 °F 19.4 °F 74% 30.30 in 7.0 mi NE 9.2 mph - N/A   Clear
7:15 AM 26.6 °F 18.2 °F 19.4 °F 74% 30.28 in 7.0 mi NE 8.1 mph - N/A   Clear
7:35 AM 26.6 °F 19.1 °F 21.2 °F 80% 30.29 in 7.0 mi NE 6.9 mph - N/A   Clear
7:55 AM 26.6 °F 19.1 °F 21.2 °F 80% 30.31 in 7.0 mi NE 6.9 mph - N/A   Clear
8:15 AM 26.6 °F 20.0 °F 21.2 °F 80% 30.31 in 5.0 mi NE 5.8 mph - N/A   Clear
8:35 AM 26.6 °F 18.2 °F 21.2 °F 80% 30.30 in 5.0 mi NE 8.1 mph - N/A   Clear
8:55 AM 26.6 °F 16.8 °F 21.2 °F 80% 30.29 in 5.0 mi ENE 10.4 mph - N/A   Clear
9:15 AM 26.6 °F 15.2 °F 21.2 °F 80% 30.26 in 6.0 mi NE 13.8 mph - N/A   Clear
9:35 AM 28.4 °F 18.0 °F 21.2 °F 74% 30.25 in 7.0 mi NE 12.7 mph - N/A   Clear
9:55 AM 28.4 °F 19.1 °F 21.2 °F 74% 30.26 in 8.0 mi NE 10.4 mph - N/A   Clear
10:15 AM 28.4 °F 20.4 °F 21.2 °F 74% 30.27 in 9.0 mi East 8.1 mph - N/A   Clear
10:35 AM 30.2 °F 22.6 °F 21.2 °F 69% 30.27 in 10.0 mi East 8.1 mph - N/A   Clear
10:55 AM 30.2 °F 21.9 °F 21.2 °F 69% 30.25 in 10.0 mi East 9.2 mph - N/A   Clear
11:15 AM 30.2 °F 21.9 °F 21.2 °F 69% 30.24 in 10.0 mi ENE 9.2 mph 17.3 mph N/A   Clear
11:35 AM 30.2 °F 18.9 °F 21.2 °F 69% 30.19 in 10.0 mi ENE 16.1 mph 19.6 mph N/A   Clear
11:55 AM 30.2 °F 19.3 °F 19.4 °F 64% 30.19 in 10.0 mi East 15.0 mph 18.4 mph N/A   Clear
12:15 PM 32.0 °F 27.5 °F 21.2 °F 64% 30.23 in 10.0 mi ENE 4.6 mph - N/A   Clear
12:35 PM 32.0 °F 24.8 °F 19.4 °F 60% 30.20 in 10.0 mi East 8.1 mph - N/A   Clear
12:55 PM 32.0 °F 24.8 °F 19.4 °F 60% 30.20 in 10.0 mi East 8.1 mph - N/A   Clear
1:15 PM 32.0 °F 24.8 °F 19.4 °F 60% 30.19 in 10.0 mi ENE 8.1 mph - N/A   Clear
1:35 PM 32.0 °F - 19.4 °F 60% 30.20 in 10.0 mi Calm Calm - N/A   Partly Cloudy
1:55 PM 32.0 °F 25.6 °F 19.4 °F 60% 30.18 in 10.0 mi NE 6.9 mph - N/A   Partly Cloudy
2:15 PM 32.0 °F 24.2 °F 19.4 °F 60% 30.18 in 10.0 mi NE 9.2 mph - N/A   Partly Cloudy
2:35 PM 30.2 °F 21.9 °F 19.4 °F 64% 30.15 in 10.0 mi NNE 9.2 mph - N/A   Mostly Cloudy
2:55 PM 28.4 °F 17.0 °F 21.2 °F 74% 30.10 in 0.8 mi NE 15.0 mph - N/A   Overcast
3:15 PM 28.4 °F 18.0 °F 24.8 °F 86% 30.10 in 0.5 mi NE 12.7 mph - N/A   Overcast
3:35 PM 28.4 °F 19.1 °F 24.8 °F 86% 30.10 in 0.5 mi NE 10.4 mph - N/A   Mostly Cloudy
3:55 PM 28.4 °F 15.8 °F 24.8 °F 86% 30.05 in 0.5 mi ENE 18.4 mph 21.9 mph 0.02 in   Unknown
4:15 PM 28.4 °F 15.8 °F 24.8 °F 86% 30.02 in 2.5 mi ENE 18.4 mph 23.0 mph 0.10 in   Scattered Clouds
4:35 PM 28.4 °F 14.7 °F 24.8 °F 86% 29.99 in 3.0 mi ENE 21.9 mph 28.8 mph 0.15 in   Mostly Cloudy
4:55 PM 28.4 °F 18.0 °F 24.8 °F 86% 30.03 in 3.0 mi ENE 12.7 mph 24.2 mph 0.17 in   Overcast
5:15 PM 30.2 °F 21.9 °F 26.6 °F 86% 30.02 in 2.0 mi NE 9.2 mph 21.9 mph 0.05 in   Overcast
5:35 PM 30.2 °F - 26.6 °F 86% 30.00 in 2.5 mi Calm Calm - 0.10 in   Overcast
5:55 PM 30.2 °F - 26.6 °F 86% 29.96 in 2.0 mi Calm Calm - 0.15 in   Overcast
6:15 PM 30.2 °F - 26.6 °F 86% 29.96 in 3.0 mi Calm Calm - 0.03 in   Overcast
6:35 PM 30.2 °F - 26.6 °F 86% 29.95 in 4.0 mi Calm Calm - 0.06 in   Overcast
6:55 PM 30.2 °F - 26.6 °F 86% 29.94 in 3.0 mi Calm Calm - 0.10 in   Overcast
7:15 PM 30.2 °F - 28.4 °F 93% 29.95 in 3.0 mi Calm Calm - 0.04 in   Overcast
7:35 PM 30.2 °F - 26.6 °F 86% 29.97 in 4.0 mi Calm Calm - 0.07 in   Overcast
7:55 PM 30.2 °F - 26.6 °F 86% 29.94 in 3.0 mi Calm Calm - 0.09 in   Overcast
8:15 PM 30.2 °F - 28.4 °F 93% 29.96 in 4.0 mi Calm Calm - 0.01 in   Mostly Cloudy
8:35 PM 30.2 °F - 26.6 °F 86% 29.97 in 2.0 mi Calm Calm - 0.06 in   Overcast
8:55 PM 30.2 °F - 28.4 °F 93% 29.91 in 1.8 mi Calm Calm - 0.12 in   Overcast
9:15 PM 30.2 °F - 28.4 °F 93% 29.92 in 3.0 mi Calm Calm - 0.03 in   Mostly Cloudy
9:35 PM 30.2 °F - 26.6 °F 86% 29.89 in 4.0 mi Calm Calm - 0.04 in   Mostly Cloudy
9:55 PM 30.2 °F - 26.6 °F 86% 29.86 in 5.0 mi Calm Calm - 0.04 in   Overcast
10:15 PM 30.2 °F - 28.4 °F 93% 29.79 in 5.0 mi Calm Calm - N/A   Mostly Cloudy
10:35 PM 30.2 °F - 28.4 °F 93% 29.83 in 8.0 mi Calm Calm - N/A   Unknown
10:55 PM 30.2 °F - 28.4 °F 93% 29.84 in 8.0 mi Calm Calm - N/A   Unknown
11:15 PM 30.2 °F - 28.4 °F 93% 29.83 in 7.0 mi Calm Calm - N/A   Unknown
11:35 PM 30.2 °F - 28.4 °F 93% 29.83 in 8.0 mi Calm Calm - N/A   Mostly Cloudy
11:55 PM 30.2 °F - 26.6 °F 86% 29.85 in 4.0 mi Calm Calm - N/A   Overcast